Time,TemperatureF,DewpointF,PressureIn,WindDirection,WindDirectionDegrees,WindSpeedMPH,WindSpeedGustMPH,Humidity,HourlyPrecipIn,Conditions,Clouds,dailyrainin,SoftwareType,DateUTC
2013-05-02 00:01:00,45.5,32.5,30.08,North,0,0.0,0.0,60,0.00,,,0.00,WUHU216HW,2013-05-02 07:01:00,
2013-05-02 00:06:00,45.2,32.6,30.08,North,0,0.0,0.0,61,0.00,,,0.00,WUHU216HW,2013-05-02 07:06:00,
2013-05-02 00:11:00,45.0,32.4,30.08,North,0,0.0,0.0,61,0.00,,,0.00,WUHU216HW,2013-05-02 07:11:00,
2013-05-02 00:16:00,44.8,32.6,30.08,North,0,0.0,0.0,62,0.00,,,0.00,WUHU216HW,2013-05-02 07:16:00,
2013-05-02 00:21:00,44.6,32.4,30.08,North,0,0.0,0.0,62,0.00,,,0.00,WUHU216HW,2013-05-02 07:21:00,
2013-05-02 00:26:00,44.6,32.4,30.08,North,0,0.0,0.0,62,0.00,,,0.00,WUHU216HW,2013-05-02 07:26:00,
2013-05-02 00:31:00,44.5,32.7,30.08,North,0,0.0,0.0,63,0.00,,,0.00,WUHU216HW,2013-05-02 07:31:00,
2013-05-02 00:36:00,44.6,32.9,30.07,North,0,0.0,0.0,63,0.00,,,0.00,WUHU216HW,2013-05-02 07:36:00,
2013-05-02 00:41:00,44.5,32.7,30.08,North,0,0.0,0.0,63,0.00,,,0.00,WUHU216HW,2013-05-02 07:41:00,
2013-05-02 00:46:00,44.3,32.5,30.08,North,0,0.0,0.0,63,0.00,,,0.00,WUHU216HW,2013-05-02 07:46:00,
2013-05-02 00:51:00,44.1,32.3,30.08,North,0,0.0,0.0,63,0.00,,,0.00,WUHU216HW,2013-05-02 07:51:00,
2013-05-02 00:56:00,43.9,32.5,30.08,North,0,0.0,0.0,64,0.00,,,0.00,WUHU216HW,2013-05-02 07:56:00,
2013-05-02 01:01:00,43.9,32.5,30.08,North,0,0.0,0.0,64,0.00,,,0.00,WUHU216HW,2013-05-02 08:01:00,
2013-05-02 01:06:00,43.7,32.3,30.07,North,0,0.0,0.0,64,0.00,,,0.00,WUHU216HW,2013-05-02 08:06:00,
2013-05-02 01:11:00,43.6,32.6,30.08,North,0,0.0,0.0,65,0.00,,,0.00,WUHU216HW,2013-05-02 08:11:00,
2013-05-02 01:16:00,43.6,32.6,30.07,North,0,0.0,0.0,65,0.00,,,0.00,WUHU216HW,2013-05-02 08:16:00,
2013-05-02 01:21:00,43.2,32.2,30.07,North,0,0.0,0.0,65,0.00,,,0.00,WUHU216HW,2013-05-02 08:21:00,
2013-05-02 01:26:00,43.0,32.4,30.07,North,0,0.0,0.0,66,0.00,,,0.00,WUHU216HW,2013-05-02 08:26:00,
2013-05-02 01:31:00,43.0,32.4,30.07,North,0,0.0,0.0,66,0.00,,,0.00,WUHU216HW,2013-05-02 08:31:00,
2013-05-02 01:36:00,42.8,32.2,30.07,North,0,0.0,0.0,66,0.00,,,0.00,WUHU216HW,2013-05-02 08:36:00,
2013-05-02 01:41:00,42.7,32.5,30.07,North,0,0.0,0.0,67,0.00,,,0.00,WUHU216HW,2013-05-02 08:41:00,
2013-05-02 01:46:00,42.7,32.5,30.07,North,0,0.0,0.0,67,0.00,,,0.00,WUHU216HW,2013-05-02 08:46:00,
2013-05-02 01:51:00,42.8,32.7,30.07,North,0,0.0,0.0,67,0.00,,,0.00,WUHU216HW,2013-05-02 08:51:00,
2013-05-02 01:56:00,42.7,32.5,30.07,North,0,0.0,0.0,67,0.00,,,0.00,WUHU216HW,2013-05-02 08:56:00,
2013-05-02 02:01:00,42.5,32.3,30.07,North,0,0.0,0.0,67,0.00,,,0.00,WUHU216HW,2013-05-02 09:01:00,
2013-05-02 02:06:00,42.3,32.5,30.07,North,0,0.0,0.0,68,0.00,,,0.00,WUHU216HW,2013-05-02 09:06:00,
2013-05-02 02:11:00,42.1,32.3,30.07,North,0,0.0,0.0,68,0.00,,,0.00,WUHU216HW,2013-05-02 09:11:00,
2013-05-02 02:16:00,41.9,32.1,30.06,North,0,0.0,0.0,68,0.00,,,0.00,WUHU216HW,2013-05-02 09:16:00,
2013-05-02 02:21:00,41.9,31.8,30.06,North,0,0.0,0.0,67,0.00,,,0.00,WUHU216HW,2013-05-02 09:21:00,
2013-05-02 02:26:00,41.9,32.1,30.06,North,0,0.0,0.0,68,0.00,,,0.00,WUHU216HW,2013-05-02 09:26:00,
2013-05-02 02:31:00,41.8,32.0,30.06,North,0,0.0,0.0,68,0.00,,,0.00,WUHU216HW,2013-05-02 09:31:00,
2013-05-02 02:36:00,41.8,32.4,30.06,North,0,0.0,0.0,69,0.00,,,0.00,WUHU216HW,2013-05-02 09:36:00,
2013-05-02 02:41:00,41.6,32.2,30.06,North,0,0.0,0.0,69,0.00,,,0.00,WUHU216HW,2013-05-02 09:41:00,
2013-05-02 02:46:00,41.4,32.1,30.06,North,0,0.0,0.0,69,0.00,,,0.00,WUHU216HW,2013-05-02 09:46:00,
2013-05-02 02:51:00,41.4,32.4,30.06,North,0,0.0,0.0,70,0.00,,,0.00,WUHU216HW,2013-05-02 09:51:00,
2013-05-02 02:56:00,41.4,32.4,30.06,North,0,0.0,0.0,70,0.00,,,0.00,WUHU216HW,2013-05-02 09:56:00,
2013-05-02 03:01:00,41.4,32.4,30.06,North,0,0.0,0.0,70,0.00,,,0.00,WUHU216HW,2013-05-02 10:01:00,
2013-05-02 03:06:00,41.4,32.4,30.06,North,0,0.0,0.0,70,0.00,,,0.00,WUHU216HW,2013-05-02 10:06:00,
2013-05-02 03:11:00,41.4,32.4,30.05,North,0,0.0,0.0,70,0.00,,,0.00,WUHU216HW,2013-05-02 10:11:00,
2013-05-02 03:16:00,41.0,32.0,30.05,North,0,0.0,0.0,70,0.00,,,0.00,WUHU216HW,2013-05-02 10:16:00,
2013-05-02 03:21:00,40.9,32.2,30.05,North,0,0.0,0.0,71,0.00,,,0.00,WUHU216HW,2013-05-02 10:21:00,
2013-05-02 03:26:00,40.7,32.1,30.05,North,0,0.0,0.0,71,0.00,,,0.00,WUHU216HW,2013-05-02 10:26:00,
2013-05-02 03:31:00,40.3,32.0,30.05,North,0,0.0,0.0,72,0.00,,,0.00,WUHU216HW,2013-05-02 10:31:00,
2013-05-02 03:36:00,40.0,31.6,30.05,North,0,0.0,0.0,72,0.00,,,0.00,WUHU216HW,2013-05-02 10:36:00,
2013-05-02 03:41:00,40.0,32.0,30.05,North,0,0.0,0.0,73,0.00,,,0.00,WUHU216HW,2013-05-02 10:41:00,
2013-05-02 03:46:00,40.0,32.0,30.05,North,0,0.0,0.0,73,0.00,,,0.00,WUHU216HW,2013-05-02 10:46:00,
2013-05-02 03:51:00,40.0,32.0,30.04,North,0,0.0,0.0,73,0.00,,,0.00,WUHU216HW,2013-05-02 10:51:00,
2013-05-02 03:56:00,40.0,32.3,30.05,North,0,0.0,0.0,74,0.00,,,0.00,WUHU216HW,2013-05-02 10:56:00,
2013-05-02 04:01:00,39.6,32.0,30.05,North,0,0.0,0.0,74,0.00,,,0.00,WUHU216HW,2013-05-02 11:01:00,
2013-05-02 04:06:00,39.8,32.1,30.05,North,0,0.0,0.0,74,0.00,,,0.00,WUHU216HW,2013-05-02 11:06:00,
2013-05-02 04:11:00,40.0,32.3,30.05,North,0,0.0,0.0,74,0.00,,,0.00,WUHU216HW,2013-05-02 11:11:00,
2013-05-02 04:16:00,40.0,32.3,30.05,North,0,0.0,0.0,74,0.00,,,0.00,WUHU216HW,2013-05-02 11:16:00,
2013-05-02 04:21:00,40.1,32.5,30.04,North,0,0.0,0.0,74,0.00,,,0.00,WUHU216HW,2013-05-02 11:21:00,
2013-05-02 04:26:00,40.3,32.7,30.04,North,0,0.0,0.0,74,0.00,,,0.00,WUHU216HW,2013-05-02 11:26:00,
2013-05-02 04:31:00,40.3,32.7,30.05,North,0,0.0,0.0,74,0.00,,,0.00,WUHU216HW,2013-05-02 11:31:00,
2013-05-02 04:36:00,40.1,32.5,30.04,North,0,0.0,0.0,74,0.00,,,0.00,WUHU216HW,2013-05-02 11:36:00,
2013-05-02 04:41:00,40.0,32.3,30.04,North,0,0.0,0.0,74,0.00,,,0.00,WUHU216HW,2013-05-02 11:41:00,
2013-05-02 04:46:00,39.8,32.5,30.04,North,0,0.0,0.0,75,0.00,,,0.00,WUHU216HW,2013-05-02 11:46:00,
2013-05-02 04:51:00,39.6,32.3,30.04,North,0,0.0,0.0,75,0.00,,,0.00,WUHU216HW,2013-05-02 11:51:00,
2013-05-02 04:56:00,39.6,32.3,30.04,North,0,0.0,0.0,75,0.00,,,0.00,WUHU216HW,2013-05-02 11:56:00,
2013-05-02 05:01:00,39.4,32.1,30.04,North,0,0.0,0.0,75,0.00,,,0.00,WUHU216HW,2013-05-02 12:01:00,
2013-05-02 05:06:00,39.2,32.3,30.04,North,0,0.0,0.0,76,0.00,,,0.00,WUHU216HW,2013-05-02 12:06:00,
2013-05-02 05:11:00,39.2,32.3,30.04,North,0,0.0,0.0,76,0.00,,,0.00,WUHU216HW,2013-05-02 12:11:00,
2013-05-02 05:16:00,39.2,32.3,30.04,North,0,0.0,0.0,76,0.00,,,0.00,WUHU216HW,2013-05-02 12:16:00,
2013-05-02 05:21:00,39.2,32.7,30.04,North,0,0.0,0.0,77,0.00,,,0.00,WUHU216HW,2013-05-02 12:21:00,
2013-05-02 05:26:00,39.2,32.7,30.03,North,0,0.0,0.0,77,0.00,,,0.00,WUHU216HW,2013-05-02 12:26:00,
2013-05-02 05:31:00,39.2,32.7,30.03,North,0,0.0,0.0,77,0.00,,,0.00,WUHU216HW,2013-05-02 12:31:00,
2013-05-02 05:36:00,39.4,32.8,30.03,North,0,0.0,0.0,77,0.00,,,0.00,WUHU216HW,2013-05-02 12:36:00,
2013-05-02 05:41:00,39.6,32.9,30.03,North,0,0.0,0.0,77,0.00,,,0.00,WUHU216HW,2013-05-02 12:41:00,
2013-05-02 05:46:00,39.6,32.9,30.02,North,0,0.0,0.0,77,0.00,,,0.00,WUHU216HW,2013-05-02 12:46:00,
2013-05-02 05:51:00,39.4,32.8,30.03,North,0,0.0,0.0,77,0.00,,,0.00,WUHU216HW,2013-05-02 12:51:00,
2013-05-02 05:56:00,39.1,32.5,30.03,North,0,0.0,0.0,77,0.00,,,0.00,WUHU216HW,2013-05-02 12:56:00,
2013-05-02 06:01:00,39.1,32.5,30.03,North,0,0.0,0.0,77,0.00,,,0.00,WUHU216HW,2013-05-02 13:01:00,
2013-05-02 06:06:00,39.1,32.5,30.03,North,0,0.0,0.0,77,0.00,,,0.00,WUHU216HW,2013-05-02 13:06:00,
2013-05-02 06:11:00,39.1,32.5,30.03,North,0,0.0,0.0,77,0.00,,,0.00,WUHU216HW,2013-05-02 13:11:00,
2013-05-02 06:16:00,39.1,32.5,30.03,North,0,0.0,0.0,77,0.00,,,0.00,WUHU216HW,2013-05-02 13:16:00,
2013-05-02 06:21:00,39.1,32.5,30.03,North,0,0.0,0.0,77,0.00,,,0.00,WUHU216HW,2013-05-02 13:21:00,
2013-05-02 06:26:00,39.2,32.7,30.03,North,0,0.0,0.0,77,0.00,,,0.00,WUHU216HW,2013-05-02 13:26:00,
2013-05-02 06:31:00,39.2,32.7,30.03,North,0,0.0,0.0,77,0.00,,,0.00,WUHU216HW,2013-05-02 13:31:00,
2013-05-02 06:36:00,39.2,32.7,30.02,North,0,0.0,0.0,77,0.00,,,0.00,WUHU216HW,2013-05-02 13:36:00,
2013-05-02 06:41:00,39.2,32.7,30.03,North,0,0.0,0.0,77,0.00,,,0.00,WUHU216HW,2013-05-02 13:41:00,
2013-05-02 06:46:00,39.4,32.8,30.03,North,0,0.0,0.0,77,0.00,,,0.00,WUHU216HW,2013-05-02 13:46:00,
2013-05-02 06:51:00,39.2,32.9,30.03,North,0,0.0,0.0,78,0.00,,,0.00,WUHU216HW,2013-05-02 13:51:00,
2013-05-02 06:56:00,39.4,33.1,30.03,North,0,0.0,0.0,78,0.00,,,0.00,WUHU216HW,2013-05-02 13:56:00,
2013-05-02 07:01:00,39.6,33.3,30.03,North,0,0.0,0.0,78,0.00,,,0.00,WUHU216HW,2013-05-02 14:01:00,
2013-05-02 07:06:00,39.6,33.3,30.03,North,0,0.0,0.0,78,0.00,,,0.00,WUHU216HW,2013-05-02 14:06:00,
2013-05-02 07:11:00,39.6,33.3,30.03,North,0,0.0,0.0,78,0.00,,,0.00,WUHU216HW,2013-05-02 14:11:00,
2013-05-02 07:16:00,39.6,33.3,30.03,North,0,0.0,0.0,78,0.00,,,0.00,WUHU216HW,2013-05-02 14:16:00,
2013-05-02 07:21:00,40.0,33.7,30.03,North,0,0.0,0.0,78,0.00,,,0.00,WUHU216HW,2013-05-02 14:21:00,
2013-05-02 07:26:00,40.0,33.9,30.03,North,0,0.0,0.0,79,0.00,,,0.00,WUHU216HW,2013-05-02 14:26:00,
2013-05-02 07:31:00,40.1,34.1,30.03,North,0,0.0,0.0,79,0.00,,,0.00,WUHU216HW,2013-05-02 14:31:00,
2013-05-02 07:36:00,40.3,34.3,30.03,North,0,0.0,0.0,79,0.00,,,0.00,WUHU216HW,2013-05-02 14:36:00,
2013-05-02 07:41:00,40.7,35.3,30.03,North,0,0.0,0.0,81,0.00,,,0.00,WUHU216HW,2013-05-02 14:41:00,
2013-05-02 07:46:00,41.0,35.9,30.02,North,0,0.0,0.0,82,0.00,,,0.00,WUHU216HW,2013-05-02 14:46:00,
2013-05-02 07:51:00,41.2,35.7,30.02,North,0,0.0,0.0,81,0.00,,,0.00,WUHU216HW,2013-05-02 14:51:00,
2013-05-02 07:56:00,41.8,36.6,30.02,North,0,0.0,0.0,82,0.00,,,0.00,WUHU216HW,2013-05-02 14:56:00,
2013-05-02 08:01:00,42.3,37.4,30.02,North,0,0.0,0.0,83,0.00,,,0.00,WUHU216HW,2013-05-02 15:01:00,
2013-05-02 08:06:00,42.8,37.7,30.02,North,0,0.0,0.0,82,0.00,,,0.00,WUHU216HW,2013-05-02 15:06:00,
2013-05-02 08:11:00,43.6,37.8,30.02,North,0,0.0,0.0,80,0.00,,,0.00,WUHU216HW,2013-05-02 15:11:00,
2013-05-02 08:16:00,44.6,38.5,30.02,North,0,0.0,0.0,79,0.00,,,0.00,WUHU216HW,2013-05-02 15:16:00,
2013-05-02 08:21:00,45.2,38.4,30.02,North,0,0.0,0.0,77,0.00,,,0.00,WUHU216HW,2013-05-02 15:21:00,
2013-05-02 08:26:00,45.7,39.0,30.02,North,0,0.0,0.0,77,0.00,,,0.00,WUHU216HW,2013-05-02 15:26:00,
2013-05-02 08:31:00,46.4,38.6,30.02,North,0,0.0,0.0,74,0.00,,,0.00,WUHU216HW,2013-05-02 15:31:00,
2013-05-02 08:36:00,47.3,38.4,30.01,North,0,0.0,0.0,71,0.00,,,0.00,WUHU216HW,2013-05-02 15:36:00,
2013-05-02 08:41:00,48.1,37.2,30.01,North,0,0.0,0.0,66,0.00,,,0.00,WUHU216HW,2013-05-02 15:41:00,
2013-05-02 08:46:00,49.0,36.9,30.01,North,0,0.0,0.0,63,0.00,,,0.00,WUHU216HW,2013-05-02 15:46:00,
2013-05-02 08:51:00,49.3,37.6,30.01,North,0,0.0,0.0,64,0.00,,,0.00,WUHU216HW,2013-05-02 15:51:00,
2013-05-02 08:56:00,50.0,36.3,30.01,North,0,0.0,0.0,59,0.00,,,0.00,WUHU216HW,2013-05-02 15:56:00,
2013-05-02 09:01:00,50.8,36.5,30.01,North,0,0.0,0.0,58,0.00,,,0.00,WUHU216HW,2013-05-02 16:01:00,
2013-05-02 09:06:00,51.3,37.5,30.00,North,0,0.0,0.0,59,0.00,,,0.00,WUHU216HW,2013-05-02 16:06:00,
2013-05-02 09:11:00,51.7,35.5,30.00,North,0,0.0,0.0,54,0.00,,,0.00,WUHU216HW,2013-05-02 16:11:00,
2013-05-02 09:16:00,52.0,34.9,30.00,North,0,0.0,0.0,52,0.00,,,0.00,WUHU216HW,2013-05-02 16:16:00,
2013-05-02 09:21:00,52.6,36.4,30.00,North,0,0.0,0.0,54,0.00,,,0.00,WUHU216HW,2013-05-02 16:21:00,
2013-05-02 09:26:00,53.1,36.4,30.00,North,0,0.0,0.0,53,0.00,,,0.00,WUHU216HW,2013-05-02 16:26:00,
2013-05-02 09:31:00,53.6,37.8,30.00,North,0,0.0,0.0,55,0.00,,,0.00,WUHU216HW,2013-05-02 16:31:00,
2013-05-02 09:36:00,53.6,38.3,30.00,North,0,0.0,0.0,56,0.00,,,0.00,WUHU216HW,2013-05-02 16:36:00,
2013-05-02 09:41:00,53.6,38.7,30.00,North,0,0.0,0.0,57,0.00,,,0.00,WUHU216HW,2013-05-02 16:41:00,
2013-05-02 09:46:00,53.8,38.9,30.00,North,0,0.0,0.0,57,0.00,,,0.00,WUHU216HW,2013-05-02 16:46:00,
2013-05-02 09:51:00,53.8,39.3,30.00,North,0,0.0,0.0,58,0.00,,,0.00,WUHU216HW,2013-05-02 16:51:00,
2013-05-02 09:56:00,53.8,39.3,30.00,North,0,0.0,0.0,58,0.00,,,0.00,WUHU216HW,2013-05-02 16:56:00,
2013-05-02 10:01:00,54.0,40.0,30.00,North,0,0.0,0.0,59,0.00,,,0.00,WUHU216HW,2013-05-02 17:01:00,
2013-05-02 10:06:00,54.4,39.9,30.00,North,0,0.0,0.0,58,0.00,,,0.00,WUHU216HW,2013-05-02 17:06:00,
2013-05-02 10:11:00,54.5,40.1,30.00,North,0,0.0,0.0,58,0.00,,,0.00,WUHU216HW,2013-05-02 17:11:00,
2013-05-02 10:16:00,54.7,40.1,30.00,North,0,0.0,0.0,58,0.00,,,0.00,WUHU216HW,2013-05-02 17:16:00,
2013-05-02 10:21:00,55.1,40.1,29.99,North,0,0.0,0.0,57,0.00,,,0.00,WUHU216HW,2013-05-02 17:21:00,
2013-05-02 10:26:00,55.6,40.1,29.99,North,0,0.0,0.0,56,0.00,,,0.00,WUHU216HW,2013-05-02 17:26:00,
2013-05-02 10:31:00,55.8,40.2,29.99,North,0,0.0,0.0,56,0.00,,,0.00,WUHU216HW,2013-05-02 17:31:00,
2013-05-02 10:36:00,56.2,39.3,29.98,North,0,0.0,0.0,53,0.00,,,0.00,WUHU216HW,2013-05-02 17:36:00,
2013-05-02 10:41:00,56.9,39.4,29.98,North,0,0.0,0.0,52,0.00,,,0.00,WUHU216HW,2013-05-02 17:41:00,
2013-05-02 10:46:00,57.6,38.1,29.98,North,0,0.0,0.0,48,0.00,,,0.00,WUHU216HW,2013-05-02 17:46:00,
2013-05-02 10:51:00,57.8,38.3,29.98,North,0,0.0,0.0,48,0.00,,,0.00,WUHU216HW,2013-05-02 17:51:00,
2013-05-02 10:56:00,58.1,39.2,29.98,North,0,0.0,0.0,49,0.00,,,0.00,WUHU216HW,2013-05-02 17:56:00,
2013-05-02 11:01:00,58.7,39.6,29.98,North,0,0.0,0.0,49,0.00,,,0.00,WUHU216HW,2013-05-02 18:01:00,
2013-05-02 11:06:00,59.2,40.7,29.98,North,0,0.0,0.0,50,0.00,,,0.00,WUHU216HW,2013-05-02 18:06:00,
2013-05-02 11:11:00,60.1,40.9,29.98,North,0,0.0,0.0,49,0.00,,,0.00,WUHU216HW,2013-05-02 18:11:00,
2013-05-02 11:16:00,60.1,39.8,29.98,North,0,0.0,0.0,47,0.00,,,0.00,WUHU216HW,2013-05-02 18:16:00,
2013-05-02 11:21:00,59.9,37.9,29.98,North,0,0.0,0.0,44,0.00,,,0.00,WUHU216HW,2013-05-02 18:21:00,
2013-05-02 11:26:00,60.1,38.6,29.98,North,0,0.0,0.0,45,0.00,,,0.00,WUHU216HW,2013-05-02 18:26:00,
2013-05-02 11:31:00,60.1,38.6,29.97,North,0,0.0,0.0,45,0.00,,,0.00,WUHU216HW,2013-05-02 18:31:00,
2013-05-02 11:36:00,60.7,40.8,29.97,North,0,0.0,0.0,48,0.00,,,0.00,WUHU216HW,2013-05-02 18:36:00,
2013-05-02 11:41:00,60.8,41.0,29.98,North,0,0.0,0.0,48,0.00,,,0.00,WUHU216HW,2013-05-02 18:41:00,
2013-05-02 11:46:00,61.0,40.0,29.98,North,0,0.0,0.0,46,0.00,,,0.00,WUHU216HW,2013-05-02 18:46:00,
2013-05-02 11:51:00,61.4,40.9,29.97,North,0,0.0,0.0,47,0.00,,,0.00,WUHU216HW,2013-05-02 18:51:00,
2013-05-02 11:56:00,61.6,40.5,29.97,North,0,0.0,0.0,46,0.00,,,0.00,WUHU216HW,2013-05-02 18:56:00,
2013-05-02 12:01:00,61.9,41.4,29.97,North,0,0.0,0.0,47,0.00,,,0.00,WUHU216HW,2013-05-02 19:01:00,
2013-05-02 12:06:00,62.1,39.8,29.97,North,0,0.0,0.0,44,0.00,,,0.00,WUHU216HW,2013-05-02 19:06:00,
2013-05-02 12:11:00,62.1,40.4,29.97,North,0,0.0,0.0,45,0.00,,,0.00,WUHU216HW,2013-05-02 19:11:00,
2013-05-02 12:16:00,62.5,39.5,29.97,North,0,0.0,0.0,43,0.00,,,0.00,WUHU216HW,2013-05-02 19:16:00,
2013-05-02 12:21:00,62.6,40.3,29.97,North,0,0.0,0.0,44,0.00,,,0.00,WUHU216HW,2013-05-02 19:21:00,
2013-05-02 12:26:00,62.6,39.2,29.96,North,0,0.0,0.0,42,0.00,,,0.00,WUHU216HW,2013-05-02 19:26:00,
2013-05-02 12:31:00,62.6,40.9,29.96,North,0,0.0,0.0,45,0.00,,,0.00,WUHU216HW,2013-05-02 19:31:00,
2013-05-02 12:36:00,62.8,40.4,29.96,North,0,0.0,0.0,44,0.00,,,0.00,WUHU216HW,2013-05-02 19:36:00,
2013-05-02 12:41:00,63.0,40.6,29.96,North,0,0.0,0.0,44,0.00,,,0.00,WUHU216HW,2013-05-02 19:41:00,
2013-05-02 12:46:00,63.2,40.8,29.96,North,0,0.0,0.0,44,0.00,,,0.00,WUHU216HW,2013-05-02 19:46:00,
2013-05-02 12:51:00,63.4,41.0,29.96,North,0,0.0,0.0,44,0.00,,,0.00,WUHU216HW,2013-05-02 19:51:00,
2013-05-02 12:56:00,63.7,41.9,29.95,North,0,0.0,0.0,45,0.00,,,0.00,WUHU216HW,2013-05-02 19:56:00,
2013-05-02 13:01:00,63.9,40.9,29.95,North,0,0.0,0.0,43,0.00,,,0.00,WUHU216HW,2013-05-02 20:01:00,
2013-05-02 13:06:00,63.9,40.9,29.95,North,0,0.0,0.0,43,0.00,,,0.00,WUHU216HW,2013-05-02 20:06:00,
2013-05-02 13:11:00,64.1,41.6,29.95,North,0,0.0,0.0,44,0.00,,,0.00,WUHU216HW,2013-05-02 20:11:00,
2013-05-02 13:16:00,63.9,40.2,29.95,North,0,0.0,0.0,42,0.00,,,0.00,WUHU216HW,2013-05-02 20:16:00,
2013-05-02 13:21:00,64.1,39.9,29.95,North,0,0.0,0.0,41,0.00,,,0.00,WUHU216HW,2013-05-02 20:21:00,
2013-05-02 13:26:00,63.9,40.9,29.95,North,0,0.0,0.0,43,0.00,,,0.00,WUHU216HW,2013-05-02 20:26:00,
2013-05-02 13:31:00,64.1,41.1,29.95,North,0,0.0,0.0,43,0.00,,,0.00,WUHU216HW,2013-05-02 20:31:00,
2013-05-02 13:36:00,64.3,40.6,29.95,North,0,0.0,0.0,42,0.00,,,0.00,WUHU216HW,2013-05-02 20:36:00,
2013-05-02 13:41:00,64.4,42.5,29.95,North,0,0.0,0.0,45,0.00,,,0.00,WUHU216HW,2013-05-02 20:41:00,
2013-05-02 13:46:00,64.8,41.7,29.95,North,0,0.0,0.0,43,0.00,,,0.00,WUHU216HW,2013-05-02 20:46:00,
2013-05-02 13:51:00,64.8,42.9,29.94,North,0,0.0,0.0,45,0.00,,,0.00,WUHU216HW,2013-05-02 20:51:00,
2013-05-02 13:56:00,65.0,43.0,29.95,North,0,0.0,0.0,45,0.00,,,0.00,WUHU216HW,2013-05-02 20:56:00,
2013-05-02 14:01:00,65.2,42.6,29.94,North,0,0.0,0.0,44,0.00,,,0.00,WUHU216HW,2013-05-02 21:01:00,
2013-05-02 14:06:00,65.0,41.9,29.94,North,0,0.0,0.0,43,0.00,,,0.00,WUHU216HW,2013-05-02 21:06:00,
2013-05-02 14:11:00,64.8,41.7,29.94,North,0,0.0,0.0,43,0.00,,,0.00,WUHU216HW,2013-05-02 21:11:00,
2013-05-02 14:16:00,64.8,42.2,29.94,North,0,0.0,0.0,44,0.00,,,0.00,WUHU216HW,2013-05-02 21:16:00,
2013-05-02 14:21:00,64.8,42.2,29.94,North,0,0.0,0.0,44,0.00,,,0.00,WUHU216HW,2013-05-02 21:21:00,
2013-05-02 14:26:00,64.8,41.7,29.94,North,0,0.0,0.0,43,0.00,,,0.00,WUHU216HW,2013-05-02 21:26:00,
2013-05-02 14:31:00,64.8,41.7,29.94,North,0,0.0,0.0,43,0.00,,,0.00,WUHU216HW,2013-05-02 21:31:00,
2013-05-02 14:36:00,64.8,41.7,29.94,North,0,0.0,0.0,43,0.00,,,0.00,WUHU216HW,2013-05-02 21:36:00,
2013-05-02 14:41:00,64.6,41.5,29.94,North,0,0.0,0.0,43,0.00,,,0.00,WUHU216HW,2013-05-02 21:41:00,
2013-05-02 14:46:00,64.8,42.2,29.94,North,0,0.0,0.0,44,0.00,,,0.00,WUHU216HW,2013-05-02 21:46:00,
2013-05-02 14:51:00,65.0,42.4,29.93,North,0,0.0,0.0,44,0.00,,,0.00,WUHU216HW,2013-05-02 21:51:00,
2013-05-02 14:56:00,65.3,42.2,29.94,North,0,0.0,0.0,43,0.00,,,0.00,WUHU216HW,2013-05-02 21:56:00,
2013-05-02 15:01:00,65.5,42.3,29.94,North,0,0.0,0.0,43,0.00,,,0.00,WUHU216HW,2013-05-02 22:01:00,
2013-05-02 15:06:00,65.9,40.1,29.93,North,0,0.0,0.0,39,0.00,,,0.00,WUHU216HW,2013-05-02 22:06:00,
2013-05-02 15:11:00,65.7,38.6,29.93,North,0,0.0,0.0,37,0.00,,,0.00,WUHU216HW,2013-05-02 22:11:00,
2013-05-02 15:16:00,65.5,36.3,29.93,North,0,0.0,0.0,34,0.00,,,0.00,WUHU216HW,2013-05-02 22:16:00,
2013-05-02 15:21:00,65.5,34.1,29.93,North,0,0.0,0.0,31,0.00,,,0.00,WUHU216HW,2013-05-02 22:21:00,
2013-05-02 15:26:00,65.3,33.9,29.93,North,0,0.0,0.0,31,0.00,,,0.00,WUHU216HW,2013-05-02 22:26:00,
2013-05-02 15:31:00,65.3,34.7,29.93,North,0,0.0,0.0,32,0.00,,,0.00,WUHU216HW,2013-05-02 22:31:00,
2013-05-02 15:36:00,65.3,35.4,29.93,North,0,0.0,0.0,33,0.00,,,0.00,WUHU216HW,2013-05-02 22:36:00,
2013-05-02 15:41:00,65.5,34.1,29.93,North,0,0.0,0.0,31,0.00,,,0.00,WUHU216HW,2013-05-02 22:41:00,
2013-05-02 15:46:00,65.3,33.9,29.93,North,0,0.0,0.0,31,0.00,,,0.00,WUHU216HW,2013-05-02 22:46:00,
2013-05-02 15:51:00,65.2,33.0,29.93,North,0,0.0,0.0,30,0.00,,,0.00,WUHU216HW,2013-05-02 22:51:00,
2013-05-02 15:56:00,64.8,34.2,29.93,North,0,0.0,0.0,32,0.00,,,0.00,WUHU216HW,2013-05-02 22:56:00,
2013-05-02 16:01:00,65.0,35.7,29.93,North,0,0.0,0.0,34,0.00,,,0.00,WUHU216HW,2013-05-02 23:01:00,
2013-05-02 16:06:00,65.2,33.8,29.92,North,0,0.0,0.0,31,0.00,,,0.00,WUHU216HW,2013-05-02 23:06:00,
2013-05-02 16:11:00,65.2,34.5,29.92,North,0,0.0,0.0,32,0.00,,,0.00,WUHU216HW,2013-05-02 23:11:00,
2013-05-02 16:16:00,64.8,34.9,29.92,North,0,0.0,0.0,33,0.00,,,0.00,WUHU216HW,2013-05-02 23:16:00,
2013-05-02 16:21:00,64.6,34.8,29.92,North,0,0.0,0.0,33,0.00,,,0.00,WUHU216HW,2013-05-02 23:21:00,
2013-05-02 16:26:00,64.6,34.0,29.92,North,0,0.0,0.0,32,0.00,,,0.00,WUHU216HW,2013-05-02 23:26:00,
2013-05-02 16:31:00,64.4,34.6,29.93,North,0,0.0,0.0,33,0.00,,,0.00,WUHU216HW,2013-05-02 23:31:00,
2013-05-02 16:36:00,64.4,34.6,29.92,North,0,0.0,0.0,33,0.00,,,0.00,WUHU216HW,2013-05-02 23:36:00,
2013-05-02 16:41:00,64.6,34.0,29.92,North,0,0.0,0.0,32,0.00,,,0.00,WUHU216HW,2013-05-02 23:41:00,
2013-05-02 16:46:00,64.4,33.8,29.92,North,0,0.0,0.0,32,0.00,,,0.00,WUHU216HW,2013-05-02 23:46:00,
2013-05-02 16:51:00,64.3,33.7,29.92,North,0,0.0,0.0,32,0.00,,,0.00,WUHU216HW,2013-05-02 23:51:00,
2013-05-02 16:56:00,64.4,33.8,29.92,North,0,0.0,0.0,32,0.00,,,0.00,WUHU216HW,2013-05-02 23:56:00,
2013-05-02 17:01:00,64.3,32.9,29.92,North,0,0.0,0.0,31,0.00,,,0.00,WUHU216HW,2013-05-03 00:01:00,
2013-05-02 17:06:00,64.1,31.1,29.92,North,0,0.0,0.0,29,0.00,,,0.00,WUHU216HW,2013-05-03 00:06:00,
2013-05-02 17:11:00,63.9,32.0,29.92,North,0,0.0,0.0,30,0.00,,,0.00,WUHU216HW,2013-05-03 00:11:00,
2013-05-02 17:16:00,63.7,31.8,29.92,North,0,0.0,0.0,30,0.00,,,0.00,WUHU216HW,2013-05-03 00:16:00,
2013-05-02 17:21:00,63.9,32.7,29.91,North,0,0.0,0.0,31,0.00,,,0.00,WUHU216HW,2013-05-03 00:21:00,
2013-05-02 17:26:00,63.7,30.8,29.91,North,0,0.0,0.0,29,0.00,,,0.00,WUHU216HW,2013-05-03 00:26:00,
2013-05-02 17:31:00,63.7,31.8,29.91,North,0,0.0,0.0,30,0.00,,,0.00,WUHU216HW,2013-05-03 00:31:00,
2013-05-02 17:36:00,63.7,31.8,29.91,North,0,0.0,0.0,30,0.00,,,0.00,WUHU216HW,2013-05-03 00:36:00,
2013-05-02 17:41:00,63.9,32.0,29.91,North,0,0.0,0.0,30,0.00,,,0.00,WUHU216HW,2013-05-03 00:41:00,
2013-05-02 17:46:00,63.9,32.7,29.90,North,0,0.0,0.0,31,0.00,,,0.00,WUHU216HW,2013-05-03 00:46:00,
2013-05-02 17:51:00,63.5,32.3,29.91,North,0,0.0,0.0,31,0.00,,,0.00,WUHU216HW,2013-05-03 00:51:00,
2013-05-02 17:56:00,63.5,32.3,29.91,North,0,0.0,0.0,31,0.00,,,0.00,WUHU216HW,2013-05-03 00:56:00,
2013-05-02 18:01:00,63.2,32.0,29.91,North,0,0.0,0.0,31,0.00,,,0.00,WUHU216HW,2013-05-03 01:01:00,
2013-05-02 18:06:00,63.0,32.6,29.91,North,0,0.0,0.0,32,0.00,,,0.00,WUHU216HW,2013-05-03 01:06:00,
2013-05-02 18:11:00,62.8,32.4,29.91,North,0,0.0,0.0,32,0.00,,,0.00,WUHU216HW,2013-05-03 01:11:00,
2013-05-02 18:16:00,62.8,33.1,29.91,North,0,0.0,0.0,33,0.00,,,0.00,WUHU216HW,2013-05-03 01:16:00,
2013-05-02 18:21:00,62.6,32.9,29.91,North,0,0.0,0.0,33,0.00,,,0.00,WUHU216HW,2013-05-03 01:21:00,
2013-05-02 18:26:00,62.3,33.3,29.91,North,0,0.0,0.0,34,0.00,,,0.00,WUHU216HW,2013-05-03 01:26:00,
2013-05-02 18:31:00,61.7,32.9,29.91,North,0,0.0,0.0,34,0.00,,,0.00,WUHU216HW,2013-05-03 01:31:00,
2013-05-02 18:36:00,61.7,34.3,29.91,North,0,0.0,0.0,36,0.00,,,0.00,WUHU216HW,2013-05-03 01:36:00,
2013-05-02 18:41:00,61.4,33.9,29.91,North,0,0.0,0.0,36,0.00,,,0.00,WUHU216HW,2013-05-03 01:41:00,
2013-05-02 18:46:00,61.0,34.4,29.91,North,0,0.0,0.0,37,0.00,,,0.00,WUHU216HW,2013-05-03 01:46:00,
2013-05-02 18:51:00,60.5,34.6,29.91,North,0,0.0,0.0,38,0.00,,,0.00,WUHU216HW,2013-05-03 01:51:00,
2013-05-02 18:56:00,60.1,35.0,29.91,North,0,0.0,0.0,39,0.00,,,0.00,WUHU216HW,2013-05-03 01:56:00,
2013-05-02 19:01:00,59.9,34.8,29.91,North,0,0.0,0.0,39,0.00,,,0.00,WUHU216HW,2013-05-03 02:01:00,
2013-05-02 19:06:00,59.6,35.2,29.91,North,0,0.0,0.0,40,0.00,,,0.00,WUHU216HW,2013-05-03 02:06:00,
2013-05-02 19:11:00,59.2,35.5,29.90,North,0,0.0,0.0,41,0.00,,,0.00,WUHU216HW,2013-05-03 02:11:00,
2013-05-02 19:16:00,59.2,36.6,29.90,North,0,0.0,0.0,43,0.00,,,0.00,WUHU216HW,2013-05-03 02:16:00,
2013-05-02 19:21:00,58.9,36.9,29.90,North,0,0.0,0.0,44,0.00,,,0.00,WUHU216HW,2013-05-03 02:21:00,
2013-05-02 19:26:00,58.7,37.3,29.90,North,0,0.0,0.0,45,0.00,,,0.00,WUHU216HW,2013-05-03 02:26:00,
2013-05-02 19:31:00,58.7,37.3,29.90,North,0,0.0,0.0,45,0.00,,,0.00,WUHU216HW,2013-05-03 02:31:00,
2013-05-02 19:36:00,58.7,37.3,29.90,North,0,0.0,0.0,45,0.00,,,0.00,WUHU216HW,2013-05-03 02:36:00,
2013-05-02 19:41:00,58.3,37.0,29.90,North,0,0.0,0.0,45,0.00,,,0.00,WUHU216HW,2013-05-03 02:41:00,
2013-05-02 19:46:00,58.1,36.8,29.90,North,0,0.0,0.0,45,0.00,,,0.00,WUHU216HW,2013-05-03 02:46:00,
2013-05-02 19:51:00,58.0,36.6,29.90,North,0,0.0,0.0,45,0.00,,,0.00,WUHU216HW,2013-05-03 02:51:00,
2013-05-02 19:56:00,58.0,36.6,29.90,North,0,0.0,0.0,45,0.00,,,0.00,WUHU216HW,2013-05-03 02:56:00,
2013-05-02 20:01:00,57.8,36.5,29.90,North,0,0.0,0.0,45,0.00,,,0.00,WUHU216HW,2013-05-03 03:01:00,
2013-05-02 20:06:00,57.6,36.9,29.90,North,0,0.0,0.0,46,0.00,,,0.00,WUHU216HW,2013-05-03 03:06:00,
2013-05-02 20:11:00,57.2,36.0,29.90,North,0,0.0,0.0,45,0.00,,,0.00,WUHU216HW,2013-05-03 03:11:00,
2013-05-02 20:16:00,57.2,36.0,29.90,North,0,0.0,0.0,45,0.00,,,0.00,WUHU216HW,2013-05-03 03:16:00,
2013-05-02 20:21:00,57.1,36.4,29.90,North,0,0.0,0.0,46,0.00,,,0.00,WUHU216HW,2013-05-03 03:21:00,
2013-05-02 20:26:00,56.7,35.5,29.90,North,0,0.0,0.0,45,0.00,,,0.00,WUHU216HW,2013-05-03 03:26:00,
2013-05-02 20:31:00,56.5,35.9,29.90,North,0,0.0,0.0,46,0.00,,,0.00,WUHU216HW,2013-05-03 03:31:00,
2013-05-02 20:36:00,56.5,36.5,29.90,North,0,0.0,0.0,47,0.00,,,0.00,WUHU216HW,2013-05-03 03:36:00,
2013-05-02 20:41:00,56.3,36.3,29.90,North,0,0.0,0.0,47,0.00,,,0.00,WUHU216HW,2013-05-03 03:41:00,
2013-05-02 20:46:00,56.2,36.1,29.91,North,0,0.0,0.0,47,0.00,,,0.00,WUHU216HW,2013-05-03 03:46:00,
2013-05-02 20:51:00,56.2,36.1,29.91,North,0,0.0,0.0,47,0.00,,,0.00,WUHU216HW,2013-05-03 03:51:00,
2013-05-02 20:56:00,56.0,35.9,29.91,North,0,0.0,0.0,47,0.00,,,0.00,WUHU216HW,2013-05-03 03:56:00,
2013-05-02 21:01:00,55.6,35.6,29.90,North,0,0.0,0.0,47,0.00,,,0.00,WUHU216HW,2013-05-03 04:01:00,
2013-05-02 21:06:00,55.4,36.0,29.90,North,0,0.0,0.0,48,0.00,,,0.00,WUHU216HW,2013-05-03 04:06:00,
2013-05-02 21:11:00,55.3,35.8,29.90,North,0,0.0,0.0,48,0.00,,,0.00,WUHU216HW,2013-05-03 04:11:00,
2013-05-02 21:16:00,55.1,36.2,29.90,North,0,0.0,0.0,49,0.00,,,0.00,WUHU216HW,2013-05-03 04:16:00,
2013-05-02 21:21:00,54.9,36.6,29.91,North,0,0.0,0.0,50,0.00,,,0.00,WUHU216HW,2013-05-03 04:21:00,
2013-05-02 21:26:00,54.5,36.3,29.90,North,0,0.0,0.0,50,0.00,,,0.00,WUHU216HW,2013-05-03 04:26:00,
2013-05-02 21:31:00,54.4,36.1,29.91,North,0,0.0,0.0,50,0.00,,,0.00,WUHU216HW,2013-05-03 04:31:00,
2013-05-02 21:36:00,54.2,36.5,29.90,North,0,0.0,0.0,51,0.00,,,0.00,WUHU216HW,2013-05-03 04:36:00,
2013-05-02 21:41:00,54.0,36.7,29.90,North,0,0.0,0.0,52,0.00,,,0.00,WUHU216HW,2013-05-03 04:41:00,
2013-05-02 21:46:00,54.0,36.3,29.90,North,0,0.0,0.0,51,0.00,,,0.00,WUHU216HW,2013-05-03 04:46:00,
2013-05-02 21:51:00,54.0,36.7,29.90,North,0,0.0,0.0,52,0.00,,,0.00,WUHU216HW,2013-05-03 04:51:00,
2013-05-02 21:56:00,54.0,36.3,29.90,North,0,0.0,0.0,51,0.00,,,0.00,WUHU216HW,2013-05-03 04:56:00,
2013-05-02 22:01:00,53.8,36.5,29.90,North,0,0.0,0.0,52,0.00,,,0.00,WUHU216HW,2013-05-03 05:01:00,
2013-05-02 22:06:00,53.6,36.4,29.90,North,0,0.0,0.0,52,0.00,,,0.00,WUHU216HW,2013-05-03 05:06:00,
2013-05-02 22:11:00,53.5,36.7,29.90,North,0,0.0,0.0,53,0.00,,,0.00,WUHU216HW,2013-05-03 05:11:00,
2013-05-02 22:16:00,53.3,37.0,29.90,North,0,0.0,0.0,54,0.00,,,0.00,WUHU216HW,2013-05-03 05:16:00,
2013-05-02 22:21:00,53.1,36.8,29.91,North,0,0.0,0.0,54,0.00,,,0.00,WUHU216HW,2013-05-03 05:21:00,
2013-05-02 22:26:00,52.9,37.1,29.91,North,0,0.0,0.0,55,0.00,,,0.00,WUHU216HW,2013-05-03 05:26:00,
2013-05-02 22:31:00,52.7,37.5,29.91,North,0,0.0,0.0,56,0.00,,,0.00,WUHU216HW,2013-05-03 05:31:00,
2013-05-02 22:37:00,52.6,37.3,29.90,North,0,0.0,0.0,56,0.00,,,0.00,WUHU216HW,2013-05-03 05:37:00,
2013-05-02 22:42:00,52.6,37.3,29.90,North,0,0.0,0.0,56,0.00,,,0.00,WUHU216HW,2013-05-03 05:42:00,
2013-05-02 22:47:00,52.4,37.1,29.90,North,0,0.0,0.0,56,0.00,,,0.00,WUHU216HW,2013-05-03 05:47:00,
2013-05-02 22:52:00,52.2,37.8,29.90,North,0,0.0,0.0,58,0.00,,,0.00,WUHU216HW,2013-05-03 05:52:00,
2013-05-02 22:57:00,52.0,38.1,29.90,North,0,0.0,0.0,59,0.00,,,0.00,WUHU216HW,2013-05-03 05:57:00,
2013-05-02 23:02:00,52.0,37.6,29.90,North,0,0.0,0.0,58,0.00,,,0.00,WUHU216HW,2013-05-03 06:02:00,
2013-05-02 23:07:00,52.0,37.6,29.90,North,0,0.0,0.0,58,0.00,,,0.00,WUHU216HW,2013-05-03 06:07:00,
2013-05-02 23:12:00,52.0,38.1,29.91,North,0,0.0,0.0,59,0.00,,,0.00,WUHU216HW,2013-05-03 06:12:00,
2013-05-02 23:17:00,52.0,38.5,29.91,North,0,0.0,0.0,60,0.00,,,0.00,WUHU216HW,2013-05-03 06:17:00,
2013-05-02 23:22:00,52.2,37.8,29.91,North,0,0.0,0.0,58,0.00,,,0.00,WUHU216HW,2013-05-03 06:22:00,
2013-05-02 23:27:00,52.6,38.6,29.90,North,0,0.0,0.0,59,0.00,,,0.00,WUHU216HW,2013-05-03 06:27:00,
2013-05-02 23:32:00,52.6,38.2,29.91,North,0,0.0,0.0,58,0.00,,,0.00,WUHU216HW,2013-05-03 06:32:00,
2013-05-02 23:37:00,52.6,39.1,29.91,North,0,0.0,0.0,60,0.00,,,0.00,WUHU216HW,2013-05-03 06:37:00,
2013-05-02 23:42:00,52.2,38.7,29.91,North,0,0.0,0.0,60,0.00,,,0.00,WUHU216HW,2013-05-03 06:42:00,
2013-05-02 23:47:00,52.2,38.7,29.91,North,0,0.0,0.0,60,0.00,,,0.00,WUHU216HW,2013-05-03 06:47:00,
2013-05-02 23:52:00,52.4,38.4,29.91,North,0,0.0,0.0,59,0.00,,,0.00,WUHU216HW,2013-05-03 06:52:00,
2013-05-02 23:57:00,52.2,38.7,29.91,North,0,0.0,0.0,60,0.00,,,0.00,WUHU216HW,2013-05-03 06:57:00,